Weather History for Kill Devil Hills, NC

Change the Weather History Date:

Monday, March 3, 2014

  Actual Average (KMQI) Record (KMQI)
Temperature  
Mean Temperature 41 °F -  
Max Temperature 53 °F 53 °F 78 °F (1974)
Min Temperature 29 °F 40 °F 18 °F (1980)
Degree Days  
Heating Degree Days 24    
Moisture  
Dew Point 36 °F    
Average Humidity 89    
Maximum Humidity 97    
Minimum Humidity 73    
Precipitation  
Precipitation 0.08 in - - ()
Sea Level Pressure  
Sea Level Pressure 30.01 in    
Wind  
Wind Speed 11 mph (North)    
Max Wind Speed 21 mph    
Max Gust Speed 31 mph    
Visibility 6 miles    
Events Rain , Snow    
Averages and records for this station are not official NWS values.
T = Trace of Precipitation, MM = Missing Value Source: NWS Daily Summary

Daily Weather History Graph

Daily Weather History Graph

Search for Another Location

Airport:

Trip Planner

Search our weather history database for the weather conditions in past years. The results will help you decide how hot, cold, wet, or windy it might be!

Date:

Astronomy

Mar. 03, 2014 Rise Set
Actual Time 6:30 AM EST 5:59 PM EST
Civil Twilight 6:04 AM EST 6:25 PM EST
Nautical Twilight 5:34 AM EST 6:54 PM EST
Astronomical Twilight 5:05 AM EST 7:24 PM EST
Moon 7:42 AM EST (3/3) 8:53 PM EST (3/3)
Length of Visible Light 12h 20m
Length of Day
11h 29m
Waxing Crescent, 8% of the Moon is Illuminated
Mar 3
Waxing Crescent
Mar 8
First Quarter
Mar 16
Full
Mar 23
Last Quarter
Mar 30
New

Hourly Weather History & Observations

Time (EST) Temp. Windchill Dew Point Humidity Pressure Visibility Wind Dir Wind Speed Gust Speed Precip Events Conditions
12:15 AM 53.2 °F - 46.6 °F 78% 29.91 in 10.0 mi SSW 6.9 mph - N/A   Clear
12:35 AM 53.1 °F - 46.4 °F 78% 29.91 in 10.0 mi SW 6.9 mph - N/A   Clear
12:55 AM 53.1 °F - 46.0 °F 77% 29.90 in 10.0 mi SSW 6.9 mph - N/A   Clear
1:15 AM 52.9 °F - 45.7 °F 77% 29.90 in 10.0 mi SW 6.9 mph - N/A   Clear
1:35 AM 52.7 °F - 45.3 °F 76% 29.90 in 10.0 mi SW 5.8 mph - N/A   Clear
1:55 AM 52.7 °F - 45.0 °F 75% 29.89 in 10.0 mi SW 6.9 mph - N/A   Clear
2:15 AM 52.7 °F - 44.8 °F 74% 29.88 in 10.0 mi SW 8.1 mph - N/A   Clear
2:35 AM 52.7 °F - 44.6 °F 74% 29.87 in 10.0 mi SW 8.1 mph - N/A   Clear
2:55 AM 52.5 °F - 44.6 °F 74% 29.86 in 10.0 mi SW 10.4 mph 16.1 mph N/A   Clear
3:15 AM 52.5 °F - 44.2 °F 73% 29.86 in 10.0 mi SW 9.2 mph - N/A   Clear
3:35 AM 52.2 °F - 44.6 °F 75% 29.85 in 10.0 mi SW 9.2 mph - N/A   Clear
3:55 AM 52.2 °F - 44.2 °F 74% 29.85 in 10.0 mi SW 9.2 mph - N/A   Clear
4:15 AM 52.0 °F - 44.2 °F 75% 29.85 in 10.0 mi SW 8.1 mph - N/A   Clear
4:35 AM 51.6 °F - 44.2 °F 76% 29.87 in 10.0 mi West 3.5 mph - N/A   Clear
4:55 AM 48.9 °F - 42.4 °F 78% 29.88 in 10.0 mi North 8.1 mph - N/A   Clear
5:15 AM 42.8 °F 39.3 °F 39.2 °F 87% 29.89 in 5.0 mi North 5.8 mph - N/A   Clear
5:35 AM 41.4 °F 36.2 °F 39.4 °F 93% 29.91 in 4.0 mi North 8.1 mph - N/A   Scattered Clouds
5:55 AM 41.0 °F 35.8 °F 39.6 °F 95% 29.92 in 2.5 mi NNW 8.1 mph - N/A   Overcast
6:15 AM 41.0 °F 34.7 °F 39.6 °F 95% 29.92 in 3.0 mi North 10.4 mph 18.4 mph N/A   Overcast
6:35 AM 40.8 °F 34.5 °F 39.7 °F 96% 29.93 in 3.0 mi North 10.4 mph 19.6 mph N/A   Overcast
6:55 AM 41.0 °F 35.2 °F 39.7 °F 95% 29.94 in 2.0 mi North 9.2 mph 17.3 mph N/A   Overcast
7:15 AM 40.8 °F 33.7 °F 39.7 °F 96% 29.95 in 2.5 mi North 12.7 mph 19.6 mph N/A   Overcast
7:35 AM 40.6 °F 34.8 °F 39.6 °F 96% 29.96 in 2.5 mi North 9.2 mph 18.4 mph N/A   Overcast
7:55 AM 40.6 °F 33.4 °F 39.4 °F 95% 29.97 in 3.0 mi North 12.7 mph 17.3 mph N/A   Overcast
8:15 AM 41.0 °F 34.3 °F 39.4 °F 94% 29.98 in 4.0 mi North 11.5 mph 20.7 mph N/A   Overcast
8:35 AM 41.2 °F 34.1 °F 39.2 °F 93% 29.98 in 5.0 mi North 12.7 mph 23.0 mph N/A   Overcast
8:55 AM 41.4 °F 34.3 °F 39.0 °F 91% 29.98 in 5.0 mi North 12.7 mph 24.2 mph N/A   Overcast
9:15 AM 41.0 °F 32.8 °F 38.5 °F 91% 29.99 in 5.0 mi North 16.1 mph 26.5 mph N/A   Overcast
9:35 AM 40.6 °F 33.0 °F 38.1 °F 91% 29.99 in 7.0 mi North 13.8 mph 24.2 mph N/A   Overcast
9:55 AM 40.3 °F 32.2 °F 37.9 °F 91% 29.99 in 7.0 mi NNE 15.0 mph 24.2 mph N/A   Overcast
10:15 AM 40.1 °F 31.6 °F 37.6 °F 91% 30.01 in 7.0 mi North 16.1 mph 25.3 mph N/A   Overcast
10:35 AM 39.6 °F 31.0 °F 37.2 °F 91% 30.00 in 7.0 mi NNE 16.1 mph 24.2 mph N/A   Overcast
10:55 AM 39.2 °F 31.6 °F 36.5 °F 90% 30.01 in 7.0 mi North 12.7 mph 28.8 mph N/A   Overcast
11:15 AM 38.7 °F 30.1 °F 35.8 °F 89% 30.01 in 7.0 mi North 15.0 mph 25.3 mph N/A   Overcast
11:35 AM 37.4 °F 27.8 °F 34.7 °F 90% 29.99 in 7.0 mi NNE 17.3 mph 25.3 mph N/A   Overcast
11:55 AM 36.9 °F 27.8 °F 34.2 °F 90% 30.00 in 10.0 mi NNE 15.0 mph 29.9 mph N/A   Overcast
12:15 PM 36.5 °F 28.7 °F 33.8 °F 90% 30.00 in 10.0 mi NNE 11.5 mph 27.6 mph N/A   Overcast
12:35 PM 36.3 °F 26.8 °F 33.3 °F 89% 30.00 in 10.0 mi NNE 16.1 mph 28.8 mph N/A   Overcast
12:55 PM 35.8 °F 25.7 °F 32.7 °F 89% 30.01 in 10.0 mi North 17.3 mph 28.8 mph N/A   Overcast
1:10 PM 35.8 °F 27.3 °F 32.4 °F 87% 30.01 in 10.0 mi North 12.7 mph 26.5 mph N/A   Overcast
1:35 PM 35.1 °F 25.2 °F 32.2 °F 89% 29.99 in 10.0 mi North 16.1 mph 27.6 mph N/A   Overcast
1:55 PM 35.1 °F 25.2 °F 32.5 °F 91% 29.98 in 4.0 mi North 16.1 mph 27.6 mph N/A Rain Rain
2:15 PM 34.7 °F 24.7 °F 33.1 °F 94% 29.96 in 5.0 mi NNE 16.1 mph 28.8 mph N/A Rain Light Rain
2:35 PM 34.7 °F 24.3 °F 33.3 °F 94% 29.99 in 5.0 mi North 17.3 mph 26.5 mph N/A Rain Rain
2:55 PM 34.7 °F 25.1 °F 33.3 °F 94% 30.00 in 2.0 mi North 15.0 mph 29.9 mph 0.02 in Rain Light Rain
3:15 PM 33.8 °F 24.8 °F 32.7 °F 96% 30.00 in 2.5 mi North 12.7 mph 28.8 mph 0.02 in Rain Light Rain
3:35 PM 32.4 °F 22.5 °F 31.6 °F 97% 30.01 in 3.0 mi North 13.8 mph 26.5 mph 0.02 in Snow Light Snow
3:55 PM 31.8 °F 21.4 °F 30.9 °F 96% 30.04 in 5.0 mi North 15.0 mph 26.5 mph 0.02 in Snow Light Snow
4:15 PM 31.6 °F 20.7 °F 30.2 °F 94% 30.03 in 7.0 mi North 16.1 mph 31.1 mph N/A   Overcast
4:35 PM 31.6 °F 19.3 °F 29.5 °F 92% 30.05 in 7.0 mi North 20.7 mph 29.9 mph N/A   Overcast
4:55 PM 31.6 °F 20.7 °F 29.8 °F 93% 30.06 in 2.0 mi North 16.1 mph 26.5 mph N/A Snow Light Snow
5:15 PM 31.8 °F 21.4 °F 30.6 °F 95% 30.07 in 2.5 mi North 15.0 mph 28.8 mph 0.01 in   Overcast
5:35 PM 31.6 °F 22.1 °F 30.6 °F 96% 30.07 in 3.0 mi North 12.7 mph 26.5 mph 0.01 in   Overcast
5:50 PM 31.8 °F 21.4 °F 30.7 °F 96% 30.08 in 3.0 mi North 15.0 mph 24.2 mph 0.01 in   Overcast
6:15 PM 31.6 °F 22.1 °F 30.4 °F 95% 30.10 in 2.5 mi North 12.7 mph 25.3 mph 0.01 in   Overcast
6:35 PM 31.3 °F 21.1 °F 30.0 °F 95% 30.11 in 5.0 mi North 13.8 mph 24.2 mph 0.01 in   Overcast
6:55 PM 30.9 °F 22.8 °F 29.8 °F 96% 30.12 in 4.0 mi North 9.2 mph 20.7 mph 0.01 in Snow Light Snow
7:15 PM 30.9 °F 22.2 °F 29.8 °F 96% 30.12 in 5.0 mi North 10.4 mph 27.6 mph N/A Snow Light Snow
7:35 PM 30.7 °F 20.0 °F 29.5 °F 95% 30.13 in 5.0 mi North 15.0 mph 23.0 mph N/A   Overcast
7:55 PM 30.4 °F 20.0 °F 29.1 °F 95% 30.14 in 7.0 mi North 13.8 mph 24.2 mph N/A   Overcast
8:15 PM 30.2 °F 19.3 °F 28.6 °F 94% 30.12 in 2.5 mi North 15.0 mph 24.2 mph 0.02 in Snow Light Snow
8:35 PM 30.2 °F 20.8 °F 28.8 °F 94% 30.15 in 5.0 mi North 11.5 mph 24.2 mph 0.02 in   Overcast
8:55 PM 30.2 °F 20.2 °F 28.6 °F 94% 30.18 in 7.0 mi North 12.7 mph 23.0 mph 0.02 in   Overcast
9:15 PM 30.0 °F 21.1 °F 28.2 °F 93% 30.19 in 5.0 mi North 10.4 mph 26.5 mph N/A Snow Light Snow
9:35 PM 30.2 °F 20.2 °F 28.2 °F 92% 30.21 in 7.0 mi North 12.7 mph 20.7 mph N/A Snow Light Snow
9:55 PM 30.2 °F 19.8 °F 28.2 °F 92% 30.20 in 1.8 mi North 13.8 mph 21.9 mph N/A Snow Light Snow
10:15 PM 29.7 °F 19.1 °F 27.7 °F 92% 30.19 in 7.0 mi North 13.8 mph 23.0 mph N/A   Overcast
10:30 PM 29.5 °F 20.4 °F 27.5 °F 92% 30.20 in 7.0 mi North 10.4 mph 20.7 mph N/A   Overcast
10:55 PM 29.7 °F 18.2 °F 27.5 °F 92% 30.19 in 10.0 mi North 16.1 mph 25.3 mph N/A   Overcast
11:15 PM 29.5 °F 18.8 °F 27.3 °F 92% 30.20 in 10.0 mi North 13.8 mph 21.9 mph N/A   Overcast
11:35 PM 29.3 °F 19.6 °F 26.8 °F 90% 30.20 in 10.0 mi North 11.5 mph 20.7 mph N/A   Overcast
11:55 PM 29.7 °F 19.6 °F 26.6 °F 88% 30.21 in 10.0 mi North 12.7 mph 21.9 mph N/A   Overcast